Home > Weather > Naha > Past weeks

Flag for Japan Past Weather in Naha, Okinawa, Japan — Yesterday and Last 2 Weeks

Now
88 °F

Partly sunny.


Feels Like: 102 °F
Forecast: 85 / 91 °F
Wind: 5 mph from North

Location: Naha Airport

Current Time: Jul 31, 2016 at 2:35:44 PM

Latest Report: Jul 31, 2016 at 2:00 PM


Visibility: N/A

Pressure: 29.74 "Hg

Humidity: 75%

Dew Point: 79 °F

Location of NahaLocation

Past Weather in Naha — Graph

°F

Naha Temperature Yesterday

Maximum temperature yesterday: 86 °F (at 12:00 AM)
Minimum temperature yesterday: 81 °F (at 8:30 AM)
Average temperature yesterday: 84 °F

High & Low Weather Summary for the Past Weeks

 TemperatureHumidityPressure
High90 °F (Jul 16, 1:00 PM)94% (Jul 31, 3:00 AM)29.92 "Hg (Jul 31, 3:00 AM)
Low77 °F (Jul 25, 2:00 PM)63% (Jul 20, 2:00 PM)29.71 "Hg (Jul 18, 3:30 PM)
Average86 °F77%29.79 "Hg
* Reported Jul 16 1:00 PM — Jul 31 1:30 PM, Naha, Weather by CustomWeather, © 2016

Note: Actual official high and low records may vary slightly from our data, if they occured in-between our weather recording intervals... More about our weather records

Advertising

Naha Weather History for the Previous 24 Hours

Scroll right to see more
 ConditionsComfort  
Time TempWeatherWind HumidityBarometerVisibility
1:30 PM
Sun, Jul 31
88 °FScattered showers. Partly sunny.5 mph75%29.74 "HgN/A
1:00 PM86 °FSprinkles. Partly sunny.5 mph79%29.74 "HgN/A
12:30 PM86 °FSprinkles. Broken clouds.6 mph75%29.77 "HgN/A
12:00 PM86 °FRain showers. Partly sunny.5 mph75%29.77 "HgN/A
11:30 AM88 °FSprinkles. Partly sunny.3 mph75%29.74 "HgN/A
11:00 AM88 °FPartly sunny.5 mph75%29.77 "HgN/A
10:30 AM86 °FScattered showers. Partly sunny.5 mph79%29.77 "HgN/A
10:00 AM86 °FPartly sunny.5 mph79%29.77 "HgN/A
9:30 AM84 °FPartly sunny.7 mph84%29.77 "HgN/A
9:00 AM84 °FBroken clouds.5 mph84%29.77 "HgN/A
8:30 AM84 °FRain showers. Partly sunny.3 mph84%29.74 "HgN/A
8:00 AM84 °FRain showers. Broken clouds.2 mph84%29.74 "HgN/A
7:30 AM82 °FScattered showers. Broken clouds.2 mph89%29.74 "HgN/A
7:00 AM81 °FBroken clouds.5 mph94%29.74 "HgN/A
6:30 AM81 °FScattered showers. Broken clouds.5 mph89%29.74 "HgN/A
6:00 AM81 °FRain showers. Broken clouds.7 mph89%29.74 "HgN/A
5:30 AM81 °FLots of rain. Partly cloudy.8 mph89%29.71 "Hg4 mi
5:00 AM82 °FLots of rain. Passing clouds.6 mph89%29.71 "HgN/A
4:30 AM82 °FSprinkles. Partly cloudy.2 mph89%29.71 "HgN/A
4:00 AM82 °FScattered showers. Passing clouds.2 mph89%29.71 "HgN/A
3:30 AM81 °FSprinkles. Partly cloudy.6 mph89%29.71 "HgN/A
3:00 AM81 °FRain showers. Passing clouds.5 mph94%29.71 "HgN/A
2:30 AM81 °FRain showers. Passing clouds.5 mph89%29.71 "HgN/A
2:00 AM81 °FRain showers. Partly cloudy.3 mph89%29.71 "HgN/A
1:30 AM82 °FRain showers. Partly cloudy.2 mph89%29.71 "HgN/A
1:00 AM82 °FRain showers. Passing clouds.5 mph89%29.71 "HgN/A
12:30 AM82 °FRain showers. Passing clouds.9 mph84%29.74 "HgN/A
12:00 AM84 °FSprinkles. Passing clouds.6 mph79%29.74 "HgN/A
11:30 PM
Sat, Jul 30
84 °FPassing clouds.6 mph79%29.74 "HgN/A
11:00 PM84 °FPassing clouds.8 mph79%29.74 "HgN/A
10:30 PM84 °FPassing clouds.9 mph79%29.74 "HgN/A
10:00 PM84 °FPassing clouds.9 mph79%29.71 "HgN/A
9:30 PM84 °FPassing clouds.9 mph79%29.74 "HgN/A
9:00 PM84 °FPassing clouds.10 mph79%29.71 "HgN/A
8:30 PM84 °FPassing clouds.8 mph79%29.71 "HgN/A
8:00 PM84 °FRain showers. Partly cloudy.9 mph84%29.71 "HgN/A
7:30 PM84 °FPassing clouds.13 mph79%29.71 "HgN/A
7:00 PM84 °FScattered showers. Partly sunny.14 mph79%29.71 "HgN/A
6:30 PM84 °FPartly sunny.16 mph79%29.71 "HgN/A
6:00 PM84 °FPartly sunny.14 mph79%29.71 "HgN/A
5:30 PM84 °FPartly sunny.15 mph79%29.71 "HgN/A
5:00 PM86 °FScattered showers. Broken clouds.15 mph79%29.71 "HgN/A
4:30 PM84 °FSprinkles. Broken clouds.12 mph84%29.71 "HgN/A
4:00 PM84 °FSprinkles. Broken clouds.12 mph84%29.71 "HgN/A
3:30 PM86 °FSprinkles. Broken clouds.12 mph79%29.71 "HgN/A
3:00 PM84 °FThunderstorms. Broken clouds.8 mph84%29.71 "HgN/A
2:49 PM84 °FThunderstorms. Broken clouds.8 mph84%29.71 "HgN/A
2:30 PM84 °FStrong thunderstorms. Broken clouds.12 mph84%29.71 "HgN/A
2:00 PM86 °FLots of rain. Broken clouds.12 mph79%29.74 "Hg2 mi
Weather by CustomWeather, © 2016

See weather overviewHow to use our weather pages